Location: New Greens
(51.7702°N, 0.3379°W)
Time: 21:56:46
(UTC+00:00)

Envisat - Visible Passes

Search period start: 13 November 2018 00:00
Search period end: 23 November 2018 00:00
Orbit: 764 x 766 km, 98.2° (Epoch: 13 November)

Date Brightness Start Highest point End Pass type
(mag) Time Alt. Az. Time Alt. Az. Time Alt. Az.
13 Nov 4.6 16:52:03 10° E 16:54:47 15° NE 16:57:30 10° NNE visible
13 Nov 2.9 18:27:55 10° SSE 18:32:58 71° ENE 18:38:03 10° N visible
13 Nov 5.4 20:08:52 10° SW 20:12:32 20° W 20:16:13 10° NW visible
14 Nov 5.9 06:32:20 10° NE 06:35:34 17° E 06:38:47 10° SE visible
14 Nov 3.5 17:51:43 10° SE 17:56:23 38° ENE 18:01:04 10° N visible
14 Nov 4.3 19:30:43 10° SSW 19:35:25 38° W 19:40:10 10° NNW visible
15 Nov 4.2 17:16:12 10° ESE 17:19:58 22° ENE 17:23:46 10° N visible
15 Nov 3.1 18:53:27 10° S 18:58:30 74° WSW 19:03:37 10° NNW visible
15 Nov 5.9 20:36:29 10° WSW 20:38:27 12° W 20:40:26 10° WNW visible
16 Nov 3.0 18:16:49 10° SSE 18:21:48 59° ENE 18:26:49 10° N visible
16 Nov 5.1 19:57:08 10° SW 20:01:12 24° W 20:05:18 10° NW visible
17 Nov 6.0 06:21:41 10° NE 06:24:12 14° E 06:26:43 10° ESE visible
17 Nov 3.7 17:40:49 10° ESE 17:45:16 32° ENE 17:49:45 10° N visible
17 Nov 3.9 19:19:29 11° S 19:24:10 46° W 19:29:04 10° NNW visible
18 Nov 4.3 17:05:31 10° E 17:08:55 18° NE 17:12:20 10° NNE visible
18 Nov 2.9 18:42:31 12° SSE 18:47:19 89° WSW 18:52:27 10° NNW visible
18 Nov 5.7 20:24:14 10° WSW 20:27:06 15° W 20:29:59 10° NW visible
19 Nov 5.7 06:46:12 10° NE 06:50:07 22° E 06:54:01 10° SE visible
19 Nov 3.1 18:05:47 10° SE 18:10:39 49° ENE 18:15:33 10° N visible
19 Nov 4.8 19:45:43 11° SSW 19:49:55 29° W 19:54:19 10° NNW visible
20 Nov 6.3 06:11:31 10° ENE 06:12:50 11° E 06:14:09 10° E visible
20 Nov 3.9 17:29:58 10° ESE 17:34:11 27° ENE 17:38:24 10° N visible
20 Nov 3.6 19:08:42 14° S 19:12:55 56° W 19:17:57 10° NNW visible
21 Nov 4.5 16:54:57 10° E 16:57:53 16° NE 17:00:49 10° NNE visible
21 Nov 2.8 18:31:41 14° SSE 18:36:08 77° ENE 18:41:14 10° NNW visible
21 Nov 5.5 20:12:17 10° SW 20:15:45 18° W 20:19:14 10° NW visible
22 Nov 5.8 06:35:20 10° NE 06:38:47 18° E 06:42:14 10° SE visible
22 Nov 3.4 17:54:48 10° SE 17:59:31 40° ENE 18:04:16 10° N visible
22 Nov 4.4 19:34:50 14° SSW 19:38:37 35° W 19:43:17 10° NNW visible
